{"data":{"norad_id":62571,"intl_designator":"2025-006T","name":"STARLINK-32773","alt_names":[],"object_type":"PAYLOAD","status":"ACTIVE","operator":null,"country":"US","launch_date":"2025-01-10","launch_site_code":"AFETR","launch_vehicle":null,"mission":null,"orbit_class":"UNKNOWN","rcs_meters":null,"size_class":null,"mass_kg":null,"dimensions":null,"purposes":["comms"],"wikipedia_slug":null,"has_3d_model":false,"image_url":null,"decayed_at":null,"tle_current":{"epoch":"2026-09-21T10:50:22.902144Z","epoch_age_seconds":89063,"freshness":"FRESH","line1":"1 62571U 25006T   26264.45165396  .00007509  00000+0  28205-3 0  9993","line2":"2 62571  43.0015 266.8642 0001168 274.0950  85.9769 15.27585710 94809","mean_motion":15.2758571,"eccentricity":0.0001168,"inclination_deg":43.0015,"raan_deg":266.8642,"arg_perigee_deg":274.095,"mean_anomaly_deg":85.9769,"bstar":0.00028205,"rev_number":9480,"period_min":94.266396351665,"perigee_km":482.23061375975,"apogee_km":483.83338283775,"semimajor_km":6861.1689982987,"source":"CELESTRAK","updated_at":"2026-09-22T09:00:49.629617Z"}}}